www.pogodaiklimat.ru

Погода и климат >> Архив погоды >> Индия >> Veraval


ПОГОДА в Veraval

  • Прогноз погоды в Veraval
  • Монитор погоды в Veraval
  • Климат города

АРХИВ ПОГОДЫ в Veraval

Время (UTC), дата Ветер
(напр.,м/с)
 
Видим.   Явления Облачность Т
(С)
Тd
(С)
f
(%)
Тe
(С)
Тes
(С)
Комфортность P
(гПа)
Po
(гПа)
Тmin
(С)
Tmax
(С)
R
(мм)
R24
(мм)
S
(см)
06 20.04 З 2 10 км ясно +31.4 0.0 13 +28 +48 жарко 1008.6 1009.0
09 20.04 З 3 10 км 3/3 600 м
[Sc]
+31.6 0.0 13 +28 +40 жарко 1006.9 1007.0
12 20.04 З 4 10 км 4/4 600 м
[Sc]
+30.4 0.0 14 +27 +29 жарко 1006.0 1006.0 +31.6
15 20.04 З 3 4000 м ясно +28.2 +12.9 39 +43 +43 опасность
перегрева
1007.1 1007.0
18 20.04 З 3 4000 м ясно +27.4 +25.7 90 +40 +40 очень
душно
1007.9 1008.0
21 20.04 З 3 4000 м ясно +27.2 +25.5 90 +40 +40 очень
душно
1006.7 1007.0
00 21.04 З 3 4000 м ясно +26.8 +25.1 90 +39 +39 очень
душно
1006.3 1006.0
03 21.04 З 3 10 км 4/4 600 м
[Sc]
+28.2 +12.5 38 +26 +29 жарко 1008.4 1008.0 +26.4
06 21.04 З 2 10 км 3/3 600 м
[Sc]
+31.4 0.0 13 +28 +42 жарко 1009.3 1009.0
09 21.04 ЮЗ 3 10 км ясно +31.4 0.0 13 +28 +45 жарко 1007.1 1007.0
12 21.04 З 3 10 км 5/5 600 м
[Sc]
+30.0 +12.8 35 +27 +29 жарко 1006.5 1007.0 +31.8
15 21.04 ЮЗ 4 4000 м 4/4 600 м
[Sc]
+28.4 +25.6 85 +42 +42 опасность
перегрева
1008.1 1008.0
18 21.04 ЮЗ 3 4000 м 4/4 600 м
[Sc]
+28.0 +25.7 87 +41 +41 опасность
перегрева
1008.8 1009.0
21 21.04 ЮЗ 4 4000 м 3/3 600 м
[Sc]
+27.4 +25.4 89 +40 +40 очень
душно
1007.4 1007.0
00 22.04 СЗ 3 4000 м 4/3 600 м
[Sc]
+27.2 +12.6 40 +39 +39 очень
душно
1007.2 1007.0
03 22.04 ЮЗ 3 10 км 4/4 600 м
[Sc]
+28.4 0.0 16 +26 +29 жарко 1009.6 1010.0 +27.0
06 22.04 ЮЗ 3 10 км 3/3 600 м
[Sc]
+30.8 0.0 14 +28 +40 жарко 1009.8 1010.0
09 22.04 Ю 2 10 км 5/5 600 м
[Sc]
+31.2 0.0 13 +28 +37 жарко 1008.2 1008.0
12 22.04 ЮЗ 3 10 км 5/5 600 м
[Sc]
+30.0 0.0 14 +27 +29 жарко 1007.1 1007.0 +31.4
15 22.04 ЮЗ 3 4000 м ясно +28.4 +12.5 37 +41 +41 опасность
перегрева
1008.1 1008.0
18 22.04 ЮЗ 4 4000 м 4/4 600 м
[Sc]
+28.0 +24.9 83 +40 +40 очень
душно
1008.8 1009.0
21 22.04 ЮЗ 4 4000 м 3/3 600 м
[Sc]
+27.0 +24.4 86 +38 +38 очень
душно
1007.4 1007.0
00 23.04 ЮЗ 5 4000 м 3/3 600 м
[Sc Ac trans Ci ing]
+26.8 +12.1 40 +37 +37 очень
душно
1007.7 1008.0
03 23.04 ЮЗ 5 10 км 3/3 600 м
[Sc]
+28.0 0.0 16 +26 +28 жарко 1010.0 1010.0 +27.0
06 23.04 ЮЗ 4 10 км 3/3 600 м
[Sc]
+31.4 0.0 13 +28 +37 жарко 1010.6 1011.0
09 23.04 ЮЗ 4 10 км 4/4 600 м
[Sc]
+31.4 0.0 13 +28 +35 жарко 1008.9 1009.0
12 23.04 ЮЗ 4 10 км 3/3 600 м
[Sc]
+30.2 0.0 14 +27 +29 жарко 1007.4 1007.0 +32.4
15 23.04 ЮЗ 4 4000 м 3/3 600 м
[Sc]
+28.0 +11.1 35 +37 +37 очень
душно
1008.3 1008.0
18 23.04 З 6 4000 м ясно +27.6 +22.3 73 +36 +36 очень
душно
1009.0 1009.0
21 23.04 ЮЗ 7 4000 м 3/3 600 м
[Sc]
+27.2 +22.8 77 +36 +36 очень
душно
1007.4 1007.0
00 24.04 ЮЗ 7 4000 м 4/4 600 м
[Sc]
+27.0 +22.9 78 +36 +36 очень
душно
1007.9 1008.0
03 24.04 З 3 10 км 3/3 600 м
[Sc]
+28.8 +11.5 34 +26 +29 жарко 1010.3 1010.0 +26.9
06 24.04 ЮЗ 3 10 км 3/3 600 м
[Sc]
+31.0 0.0 14 +28 +40 жарко 1010.9 1011.0
09 24.04 ЮЗ 3 10 км 3/3 600 м
[Sc]
+31.6 0.0 13 +28 +40 жарко 1009.4 1009.0
12 24.04 З 4 10 км 5/5 600 м
[Sc]
+30.0 0.0 14 +27 +28 жарко 1008.6 1009.0 +31.8
15 24.04 З 3 4000 м ясно +28.0 +11.9 37 +39 +39 очень
душно
1009.9 1010.0
18 24.04 З 3 4000 м 4/4 600 м
[Sc]
+27.8 +23.7 78 +38 +38 очень
душно
1010.6 1011.0
21 24.04 З 5 4000 м 3/3 600 м
[Sc]
+27.4 +23.3 78 +37 +37 очень
душно
1009.5 1010.0
00 25.04 З 5 4000 м 4/4 600 м
[Sc]
+27.2 +11.6 38 +37 +37 очень
душно
1009.3 1009.0
03 25.04 З 2 10 км 4/4 600 м
[Sc]
+29.4 0.0 15 +27 +30 жарко 1011.3 1011.0 +27.0
06 25.04 З 2 10 км 4/4 600 м
[Sc]
+31.8 0.0 13 +29 +40 жарко 1012.0 1012.0
09 25.04 З 2 10 км ясно +32.0 0.0 13 +29 +47 жарко 1010.3 1010.0
12 25.04 З 4 10 км ясно +30.6 0.0 14 +28 +30 жарко 1008.6 1009.0 +32.2
15 25.04 З 4 4000 м 3/3 600 м
[Sc]
+28.2 +12.5 38 +42 +42 опасность
перегрева
1009.5 1010.0
18 25.04 З 2 4000 м ясно +27.6 +24.7 84 +39 +39 очень
душно
1010.2 1010.0
21 25.04 З 3 4000 м ясно +27.0 +24.1 84 +37 +37 очень
душно
1008.9 1009.0
00 26.04 СЗ 2 4000 м ясно +26.0 +11.9 41 +36 +36 очень
душно
1008.7 1009.0
03 26.04 штиль 0 10 км 3/3 600 м
[Sc]
+28.4 0.0 16 +26 +31 жарко 1011.1 1011.0 +25.5
06 26.04 З 1 10 км ясно +31.2 0.0 13 +28 +51 опасность
солнечного
удара
1012.0 1012.0
09 26.04 ЮЗ 3 10 км ясно +31.4 0.0 13 +28 +43 жарко 1010.3 1010.0
12 26.04 ЮЗ 3 10 км ясно +30.8 +12.6 33 +28 +31 жарко 1009.1 1009.0 +31.6
15 26.04 З 3 4000 м 3/3 600 м
[Sc]
+27.6 +25.0 86 +40 +40 очень
душно
1010.3 1010.0
18 26.04 СЗ 3 4000 м 4/4 600 м
[Sc]
+26.4 +24.7 90 +37 +37 очень
душно
1011.2 1011.0
21 26.04 СЗ 2 4000 м 4/4 600 м
[Sc]
+26.2 +24.5 90 +37 +37 очень
душно
1010.0 1010.0
00 27.04 СВ 2 4000 м 3/3 600 м
[Sc]
+25.0 +24.1 95 +34 +34 очень
душно
1009.6 1010.0

 

Местоположение метеостанции Veraval (Gujarat, Индия): широта 20.90 долгота 70.37 высота над уровнем моря 8 м.

В архиве по умолчанию представлена погода в Veraval за последнюю неделю. Архивные данные за месяц целиком и за предыдущие месяцы, начиная с января 2011 года, Вы можете получить, выбрав интересующий диапазон дат из раскрывающегося списка и нажав кнопку "Ввод!".

Внимание! Время в таблицах - всемирное. Для получения местного времени необходимо прибавить поправку, которая в Veraval равна 5.5 ч.

Смотрите также архив погоды в соседних городах и на ближайших метеорологических станциях:

Погода в Diu (Daman and Diu, Индия) (61 км)
Погода в Porbandar (Gujarat, Индия) (111 км)
Погода в Amreli (Gujarat, Индия) (118 км)
Погода в Mahuva (Gujarat, Индия) (148 км)
Погода в Rajkot (Gujarat, Индия) (161 км)
Погода в Dwarka (Gujarat, Индия) (211 км)
Погода в Bhaunagar (Gujarat, Индия) (212 км)
Погода в Okha (Gujarat, Индия) (218 км)
Погода в New Kandla (Gujarat, Индия) (234 км)
Погода в Surendranagar (Gujarat, Индия) (240 км)

Пояснения к столбцам:

Ветер - указаны скорость ветра в м/с - средняя за 10 мин, порывы в срок и между сроками (в фигурных скобках) и направление, откуда дует ветер: С - северный, СВ - северо-восточный, В - восточный, ЮВ - юго-восточный, Ю - южный, ЮЗ - юго-западный, З - западный, СЗ - северо-западный.
Видимость - горизонтальная дальность видимости в метрах или километрах. При видимости от 1 до 10 км при отсутствии осадков обычно наблюдается дымка, при ухудшении видимости до 1 км и менее - туман. В сухую погоду видимость может ухудшаться дымом, пылью или мглою.
Явления - указаны атмосферные явления, наблюдавшиеся в срок или в последний час перед сроком; фигурными скобками обозначены явления, наблюдавшиеся между сроками (за 1-3 часа до срока); квадратными скобками обозначены град или гололедные отложения с указанием их диаметра в мм.
Облачность - указаны через наклонную черту общая и нижняя облачность в баллах и высота нижней границы облаков в метрах; квадратными скобками обозначены формы облаков: Ci - перистые, Cs - перисто-слоистые, Cc - перисто-кучевые, Ac - высококучевые, As - высокослоистые, Sc - слоисто-кучевые, Ns - слоисто-дождевые, Cu - кучевые, Cb - кучево-дождевые. Подробнее классификацию облаков см. в Атласе облаков (PDF).
T - Температура воздуха - температура, измеренная на высоте 2 м над землей.
Td - Температура точки росы - температура, при понижении до которой содержащийся в воздухе водяной пар достигнет насыщения.
f - Относительная влажность воздуха - влажноcть воздуха, измеренная на высоте 2 м над землей.
Te - Эффективная температура - температура, которую ощущает одетый по сезону человек в тени. Характеристика душности погоды. При расчете учитывается влияние влажности воздуха и скорости ветра на теплоощущения человека.
Tes - Эффективная температура на солнце - температура, которую ощущает человек, с поправкой на солнечный нагрев. Характеристика знойности погоды. Зависит от высоты солнца над горизонтом, облачности и скорости ветра. Ночью, в пасмурную погоду, а также при ветре 12 м/с и более поправка равна нулю.
P - Атмосферное давление - приведенное к уровню моря атмосферное давление.
Po - Атмосферное давление - измеренное на уровне метеостанции атмосферное давление.
Tmin - Минимальная температура - минимум температуры воздуха на высоте 2 м над землей.
Tmax - Максимальная температура - максимум температуры воздуха на высоте 2 м над землей.
R - Количество осадков - Количество выпавших осадков за период времени, мм. При наведении курсора мыши на число - период времени, за который выпало указанное количество осадков.
R24 - Количество осадков - Количество выпавших осадков за 24 часа, мм.
S - Снежный покров - Высота снежного покрова, см. При наведении курсора мыши на число - состояние снежного покрова и степень покрытия местности в баллах.